Погода в Гордали

Россия / Чеченская Республика     43°02′21″N   46°13′33″E
темп.,
°C
ветер,
м/с
пор.,
м/с
влажн.,
%
обл.,
%
осадки,
мм/ч
давл.,
гПа
погр.,
м
1 августа, вс
вс100:00+19ю325540 0.0 101335
03:00+19ю325625 0.0 101230
06:00+19ю22616 0.0 101331
09:00+26с22453 0.0 10121121
12:00+28с323944 0.3 10112117
15:00+26всв125288 0.6 1011573
18:00+25ююв115899 0.0 101157
21:00+20ю336572 0.8 101245
2 августа, пн
пн200:00+19ю3370100 0.3 101248
03:00+18ю328070 1.4 101234
06:00+19ююв228278 2.2 101328
09:00+25ссв2152100 2.3 1012741
12:00+25юв3358100 0.8 1013877
15:00+25ююв245681 1.3 1012416
18:00+24ю2260100 0.1 101256
21:00+20ю326697 0.4 101333
3 августа, вт
вт300:00+19ю336144 0.0 101335
03:00+19ю32585 0.0 101329
06:00+20ю226196 0.0 101433
09:00+27ссз21425 0.1 1013842
12:00+30с223520 0.3 10122024
15:00+29зюз013965 0.6 10111647
18:00+26ююз225097 0.1 101228
21:00+22ю33540 0.1 101440
4 августа, ср
ср400:00+22ю33560 0.0 101444
03:00+21ю33580 0.0 101443
06:00+22ю33610 0.0 101545
09:00+28сз22410 0.0 10151464
12:00+31ссз33332 0.1 10142402
15:00+32ссз223017 0.1 10132595
18:00+27зюз2147100 0.1 101420
21:00+23ююз4658100 0.3 1016113
5 августа, чт
чт500:00+24ю335293 0.0 101557
03:00+19ю43814 2.2 101640
06:00+20ююз22730 0.1 101620
09:00+25сз22500 0.1 1017963
12:00+28с32423 0.1 10151637
15:00+29ссв323954 0.4 10142063
18:00+25всв25573 0.5 1014191
21:00+21ююв32661 0.6 101531